Location: Avoca
(45.7167°N, 74.7000°W)
Time: 12:25:34
(UTC+00:00)

BlueWalker 3 - Pass Details

Date: 27 November 2022
Orbit: 499 x 517 km, 53.2° (Epoch: 01 February)

Event Time Altitude Azimuth Distance (km) Brightness Sun altitude
Rises 23:53:37 0° 278° (W) 2,624 6.8 -26.6°
Reaches altitude 10° 23:56:02 10° 290° (WNW) 1,734 5.5 -27.0°
Enters shadow 23:58:15 24° 319° (NW) 1,100 4.0 -27.4°
